Upstream stations:
Downstream station:
SHEF ID: CHNK1 Cheney Lake
STATION TYPE: RESERVOIR
Flood Pool: Bottom = 1421.60, Top = 1429.00
PRECIP ELEVATION STORAGE INFLOW RELEASE WIND-DIRWIND-SPEED VOLTAGE
in ft ac-ft cfs cfs deg mph volt
Ccp-Rev Ccp-Rev Ccp-Rev Rev-Regi Rev-Regi Ccp-Rev Ccp-Rev Ccp-Rev
(US/Central)
09/30 00:00 0.00 1419.70 149580 0 0 134.30 9.40 13.17
09/30 01:00 0.00 1419.70 149580 0 0 139.40 9.90 13.16
09/30 02:00 0.00 1419.70 149580 0 0 139.80 7.90 13.17
09/30 03:00 0.00 1419.70 149580 213 0 139.20 6.90 13.16
09/30 04:00 0.00 1419.70 149580 725 0 142.10 6.70 13.17
09/30 05:00 0.00 1419.71 149669 1257 0 149.60 5.70 13.17
09/30 06:00 0.19 1419.74 149933 2055 0 216.00 7.10 13.19
09/30 07:00 0.18 1419.78 150285 2055 0 314.80 13.30 13.18
09/30 08:00 0.07 1419.84 150814 1974 0 324.30 9.40 13.18
09/30 09:00 0.06 1419.84 150814 1662 0 ---- ---- 13.19
09/30 10:00 0.13 1419.85 150902 1329 0 ---- ---- 13.19
09/30 11:00 0.03 1419.80 150462 531 0 ---- ---- 13.19
09/30 12:00 0.00 1419.88 151166 531 0 ---- ---- 13.19
09/30 13:00 0.00 1419.88 151166 399 0 ---- ---- 13.19
09/30 14:00 0.00 1419.84 150814 199 0 ---- ---- 13.19
09/30 15:00 0.00 1419.81 150550 0 0 ---- ---- 13.19
09/30 16:00 0.00 1419.81 150550 0 0 ---- ---- 13.19
09/30 17:00 0.00 1419.82 150638 0 0 ---- ---- 13.19
09/30 18:00 0.00 1419.83 150726 0 0 ---- ---- 13.19
09/30 19:00 0.00 1419.84 150814 0 0 ---- ---- 13.19
09/30 20:00 0.00 1419.84 150814 0 0 ---- ---- 13.20
09/30 21:00 0.00 1419.83 150726 0 0 ---- ---- 13.20
09/30 22:00 0.00 1419.82 150638 0 0 ---- ---- 13.19
09/30 23:00 0.00 1419.81 150550 0 0 ---- ---- 13.19